Location: Chmeln�
(49.6483°N, 14.9871°E)
Time: 06:17:13
(UTC+00:00)

Lacrosse 5 rocket - Pass Details

Date: 24 January 2021
Orbit: 465 x 630 km, 57.0° (Epoch: 06 March)

Event Time Altitude Azimuth Distance (km) Brightness Sun altitude
Exits shadow 04:55:22 24° 227° (SW) 1,067 2.4 -17.1°
Drops below altitude 10° 04:58:19 10° 175° (S) 1,672 4.0 -16.7°
Sets 05:00:41 0° 161° (SSE) 2,526 5.1 -16.3°
